Location: Cisewo
(53.3833°N, 14.9000°E)
Time: 13:50:30
(UTC+00:00)

Cosmos 1408 Rocket - Pass Details

Date: 18 April 2021
Orbit: 601 x 631 km, 82.6° (Epoch: 16 May)

Event Time Altitude Azimuth Distance (km) Brightness Sun altitude
Rises 20:21:26 0° 353° (N) 2,867 7.9 -17.2°
Reaches altitude 10° 20:23:45 10° 360° (N) 1,959 6.8 -17.5°
Maximum altitude 20:27:53 43° 72° (ENE) 855 4.1 -17.9°
Enters shadow 20:29:03 35° 112° (ESE) 986 4.1 -18.0°
